Location: Bergnerzell
(49.1816°N, 10.2565°E)
Time: 13:09:45
(UTC+00:00)

IDEFIX/ARIANE 42P - Pass Details

Date: 21 August 2024
Orbit: 782 x 799 km, 98.5° (Epoch: 15 September)

Event Time Altitude Azimuth Distance (km) Brightness Sun altitude
Rises 00:36:19 0° 19° (NNE) 3,289 7.1 -26.7°
Reaches altitude 10° 00:38:45 10° 26° (NNE) 2,357 6.0 -26.5°
Maximum altitude 00:43:44 45° 99° (E) 1,068 3.2 -26.2°
Enters shadow 00:44:24 43° 121° (ESE) 1,105 3.2 -26.2°
